Weather History for Manhattan, KS

Change the Weather History Date:

Tuesday, February 12, 2013

  Actual Average Record
Temperature  
Mean Temperature 1 °C 0 °C  
Max Temperature 8 °C 7 °C 12 °C (2003)
Min Temperature -7 °C -7 °C -18 °C (2004)
Degree Days  
Heating Degree Days 32 33  
Month to date heating degree days 330 407  
Since 1 July heating degree days 3260 3673  
Cooling Degree Days 0 0  
Month to date cooling degree days 0 0  
Year to date cooling degree days 0 0  
Moisture  
Dew Point -6 °C    
Average Humidity 63    
Maximum Humidity 88    
Minimum Humidity 37    
Precipitation  
Precipitation 0.00 mm 1.02 mm 1.57 mm (2007)
Month to date precipitation 0.64 0.43  
Year to date precipitation 1.33 1.08  
Sea Level Pressure  
Sea Level Pressure 1019 hPa    
Wind  
Wind Speed 5 km/h (SW)    
Max Wind Speed 14 km/h    
Max Gust Speed 19 km/h    
Visibility 16 kilometers    
Events      
T = Trace of Precipitation, MM = Missing Value Source: NWS Daily Summary

Daily Weather History Graph

Daily Weather History Graph

Search for Another Location

Airport:

Trip Planner

Search our weather history database for the weather conditions in past years. The results will help you decide how hot, cold, wet, or windy it might be!

Date:

Astronomy

Feb. 12, 2013 Rise Set
Actual Time 7:21 AM CST 6:00 PM CST
Civil Twilight 6:54 AM CST 6:28 PM CST
Nautical Twilight 6:22 AM CST 6:59 PM CST
Astronomical Twilight 5:51 AM CST 7:30 PM CST
Moon 8:21 AM CST (2/12) 9:01 PM CST (2/12)
Length of Visible Light 11h 34m
Length of Day
10h 39m
Waxing Crescent, 7% of the Moon is Illuminated
Feb 12
Waxing Crescent
Feb 17
First Quarter
Feb 25
Full
Mar 4
Last Quarter
Mar 11
New

Hourly Weather History & Observations

Time (CST) Temp. Windchill Dew Point Humidity Pressure Visibility Wind Dir Wind Speed Gust Speed Precip Events Conditions
12:52 AM -5.0 °C - -7.2 °C 85% 1023.2 hPa 16.1 km Calm Calm - N/A   Clear
1:52 AM -5.0 °C - -7.2 °C 85% 1022.0 hPa 16.1 km Calm Calm - N/A   Clear
2:52 AM -5.6 °C - -7.8 °C 85% 1021.3 hPa 16.1 km Calm Calm - N/A   Clear
3:52 AM -3.9 °C - -6.1 °C 85% 1021.0 hPa 16.1 km Calm Calm - N/A   Clear
4:52 AM -3.3 °C - -6.1 °C 81% 1021.8 hPa 16.1 km Calm Calm - N/A   Clear
5:52 AM -3.9 °C - -6.1 °C 85% 1021.2 hPa 16.1 km Calm Calm - N/A   Clear
6:52 AM -6.1 °C - -7.8 °C 88% 1021.2 hPa 16.1 km Calm Calm - N/A   Clear
7:52 AM -4.4 °C - -6.7 °C 84% 1021.0 hPa 16.1 km Calm Calm - N/A   Clear
8:52 AM -2.8 °C - -5.0 °C 85% 1021.0 hPa 16.1 km Calm Calm - N/A   Clear
9:52 AM -0.6 °C - -3.9 °C 79% 1021.2 hPa 16.1 km Calm Calm - N/A   Clear
10:52 AM 1.7 °C - -2.8 °C 72% 1021.0 hPa 16.1 km Calm Calm - N/A   Clear
11:52 AM 5.0 °C 2.8 °C -4.4 °C 51% 1019.8 hPa 16.1 km SW 9.3 km/h / 2.6 m/s - N/A   Clear
12:52 PM 6.7 °C 5.3 °C -5.0 °C 43% 1019.0 hPa 16.1 km SSW 7.4 km/h / 2.1 m/s - N/A   Partly Cloudy
1:52 PM 7.2 °C 5.5 °C -6.1 °C 39% 1018.0 hPa 16.1 km WSW 9.3 km/h / 2.6 m/s - N/A   Overcast
2:52 PM 7.8 °C 5.8 °C -6.1 °C 37% 1017.2 hPa 16.1 km SW 11.1 km/h / 3.1 m/s - N/A   Overcast
3:52 PM 7.8 °C 5.5 °C -5.0 °C 40% 1016.6 hPa 16.1 km SW 13.0 km/h / 3.6 m/s - N/A   Partly Cloudy
4:52 PM 6.7 °C 3.9 °C -5.0 °C 43% 1016.3 hPa 16.1 km WSW 14.8 km/h / 4.1 m/s - N/A   Clear
5:52 PM 5.0 °C 2.8 °C -4.4 °C 51% 1016.2 hPa 16.1 km WSW 9.3 km/h / 2.6 m/s - N/A   Clear
6:52 PM 2.8 °C 0.7 °C -4.4 °C 59% 1016.3 hPa 16.1 km WSW 7.4 km/h / 2.1 m/s - N/A   Clear
7:52 PM 1.1 °C -2.2 °C -4.4 °C 67% 1016.3 hPa 16.1 km SW 11.1 km/h / 3.1 m/s - N/A   Clear
8:52 PM 0.0 °C -3.6 °C -4.4 °C 73% 1016.0 hPa 16.1 km SW 11.1 km/h / 3.1 m/s - N/A   Clear
9:52 PM -1.1 °C -4.4 °C -5.0 °C 75% 1016.1 hPa 16.1 km WSW 9.3 km/h / 2.6 m/s - N/A   Clear
10:52 PM -0.6 °C -2.5 °C -5.0 °C 72% 1015.9 hPa 16.1 km WSW 5.6 km/h / 1.5 m/s - N/A   Clear
11:52 PM -2.8 °C -5.8 °C -6.1 °C 78% 1015.5 hPa 16.1 km WSW 7.4 km/h / 2.1 m/s - N/A   Clear